Tracking 19224 objects as of 22-Jul-2018
HD Live streaming from Space Station
objects crossing your sky now

SL-12 R/B(AUX MOTOR)

Track SL-12 R/B(AUX MOTOR) now!
10-day predictions


NORAD ID: 23403
Int'l Code: 1994-076H
Perigee: 792.4 km
Apogee: 18,566.3 km
Inclination: 65.5 °
Period: 337.3 minutes
Semi major axis: 16050 km
RCS: 0.7427 m2 (medium)
Launch date: November 20, 1994
Source: Commonwealth of Independent States (former USSR) (CIS)
Launch site: TYURATAM MISSILE AND SPACE COMPLEX (TTMTR)

Note: This is a ROCKET BODY
aabbcc
Your satellite tracking list
Your tracking list is empty




NASA's NSSDC Master Catalog

Two Line Element Set (TLE):
1 23403U 94076H   18199.32648242 +.00000072 +00000-0 +72096-3 0  9993
2 23403 065.5462 272.3386 5536915 265.6041 207.5293 04.26949654367217
Source of the keplerian elements: AFSPC